KI5QWQ Weather Reports


time (UTC)temp
C
wind
direction
speed
KPH
gust
KPH
rain 1hr
cm
rain 24hr
cm
rain mn
cm
humidity
%
barometer
mb
20260502213146 -17 295 1.6 6.4 0.00 0.03 0.03 1023.2
20260502212645 -17 344 1.6 3.2 0.00 0.03 0.03 1023.1
20260502212143 -17 230 1.6 6.4 0.00 0.03 0.03 1023.3
20260502211638 -17 339 3.2 4.8 0.00 0.03 0.03 1023.2
20260502211135 -17 84 4.8 8.0 0.00 0.03 0.03 1023.4
20260502210633 -17 354 1.6 4.8 0.00 0.03 0.03 1023.6
20260502210130 -17 56 4.8 17.7 0.00 0.03 0.03 1023.7
20260502205626 -17 124 1.6 11.3 0.00 0.03 0.03 1023.8
20260502205123 -17 340 3.2 4.8 0.00 0.03 0.03 1023.9
20260502204620 -17 19 0.0 4.8 0.00 0.03 0.03 1024.1
20260502204118 -17 150 0.0 1.6 0.00 0.03 0.03 1024.0
20260502203615 -17 25 4.8 6.4 0.00 0.03 0.03 1024.2
20260502203112 -17 128 6.4 11.3 0.00 0.03 0.03 1023.9
20260502202608 -17 59 4.8 8.0 0.00 0.03 0.03 1024.1
20260502202106 -17 49 0.0 4.8 0.00 0.03 0.03 1024.1
20260502201602 -17 294 1.6 3.2 0.00 0.03 0.03 1024.2
20260502201058 -17 294 1.6 3.2 0.00 0.03 0.03 1024.1
20260502200554 -17 294 1.6 3.2 0.00 0.03 0.03 1024.3
20260502200052 -17 293 4.8 14.5 0.00 0.03 0.03 1024.3
20260502195550 -17 306 4.8 8.0 0.00 0.03 0.03 1024.2
20260502195045 -17 317 6.4 9.7 0.00 0.03 0.03 1024.2
20260502194542 -17 42 1.6 8.0 0.00 0.03 0.03 1024.3
20260502194038 -17 316 4.8 6.4 0.00 0.03 0.03 1024.2
20260502193536 -17 300 4.8 8.0 0.00 0.03 0.03 1024.3
20260502193032 -17 313 3.2 11.3 0.00 0.03 0.03 1024.4
20260502192528 -17 304 3.2 6.4 0.00 0.03 0.03 1024.3
20260502192026 -17 343 4.8 8.0 0.00 0.03 0.03 1024.4
20260502191523 -17 36 0.0 3.2 0.00 0.03 0.03 1024.4
20260502191020 -17 179 3.2 6.4 0.00 0.03 0.03 1024.4
20260502190518 -17 313 3.2 6.4 0.00 0.03 0.03 1024.4
20260502190015 -17 243 3.2 6.4 0.00 0.03 0.03 1024.3
20260502185509 -17 319 6.4 8.0 0.00 0.03 0.03 1024.6
20260502185007 -17 273 4.8 9.7 0.00 0.03 0.03 1024.6
20260502184502 -17 7 3.2 6.4 0.00 0.03 0.03 1024.5
20260502183959 -17 354 1.6 3.2 0.00 0.03 0.03 1024.6
20260502183455 -17 89 3.2 6.4 0.00 0.03 0.03 1024.7
20260502182950 -17 161 4.8 4.8 0.00 0.03 0.03 1024.7
20260502182446 -17 341 6.4 8.0 0.00 0.03 0.03 1024.8
20260502181942 -17 132 1.6 4.8 0.00 0.03 0.03 1025.1
20260502181440 -17 292 3.2 4.8 0.00 0.03 0.03 1025.3
20260502180939 -17 246 0.0 4.8 0.00 0.03 0.03 1025.3
20260502180436 -17 352 3.2 4.8 0.00 0.03 0.03 1025.4
20260502170354 -17 323 3.2 4.8 0.00 0.03 0.03 1026.2
20260502164342 -17 214 0.0 3.2 0.00 0.03 0.03 1026.5
20260502163838 -17 214 0.0 3.2 0.00 0.03 0.03 1026.5
20260502163334 -17 280 4.8 9.7 0.00 0.03 0.03 1026.5
20260502162832 -17 138 1.6 11.3 0.00 0.03 0.03 1026.5
20260502162328 -17 8 3.2 8.0 0.00 0.03 0.03 1026.6
20260502161826 -17 0 3.2 8.0 0.00 0.03 0.03 1026.7
20260502161321 -17 13 4.8 6.4 0.00 0.03 0.03 1026.6
20260502160820 -17 14 0.0 4.8 0.00 0.03 0.03 1026.7
20260502160318 -17 103 0.0 4.8 0.00 0.03 0.03 1026.7
20260502152247 -17 89 0.0 8.0 0.00 0.03 0.03 1026.7
20260502151744 -17 269 0.0 3.2 0.00 0.03 0.03 1026.7
20260502151241 -17 13 0.0 4.8 0.00 0.03 0.03 1026.6
20260502150739 -17 83 3.2 8.0 0.00 0.03 0.03 1026.6
20260502150236 -17 39 1.6 4.8 0.00 0.03 0.03 1026.7
20260502130624 -17 0.0 0.0 0.00 0.00 0.00 1025.5
20260502130122 -17 0.0 0.0 0.00 0.00 0.00 1025.5
20260502123608 -17 0.0 0.0 0.00 0.00 0.00 1025.0
20260502123104 -17 0.0 0.0 0.00 0.00 0.00 1025.1
20260502122600 -17 0.0 0.0 0.00 0.00 0.00 1025.1
20260502122057 -17 0.0 0.0 0.00 0.00 0.00 1024.9
20260502121555 -17 0.0 0.0 0.00 0.00 0.00 1024.8
20260502121053 -17 0.0 0.0 0.00 0.00 0.00 1024.9
20260502120548 -17 0.0 0.0 0.00 0.00 0.00 1024.5
20260502115544 -17 0.0 0.0 0.00 0.00 0.00 1024.5
20260502115039 -17 0.0 0.0 0.00 0.00 0.00 1024.3
20260502114536 -17 0.0 0.0 0.00 0.00 0.00 1024.1
20260502114033 -17 0.0 0.0 0.00 0.00 0.00 1024.1
20260502113531 -17 0.0 0.0 0.00 0.00 0.00 1024.1
20260502113029 -17 0.0 0.0 0.00 0.00 0.00 1024.1
20260502112527 -17 0.0 0.0 0.00 0.00 0.00 1024.1
20260502112024 -17 0.0 0.0 0.00 0.00 0.00 1024.1
20260502111521 -17 0.0 0.0 0.00 0.00 0.00 1024.0
20260502111019 -17 0.0 0.0 0.00 0.00 0.00 1023.8
20260502110516 -17 0.0 0.0 0.00 0.00 0.00 1023.7
20260502110014 -17 0.0 0.0 0.00 0.00 0.00 1023.7
20260502105510 -17 0.0 0.0 0.00 0.00 0.00 1023.5
20260502105008 -17 0.0 0.0 0.00 0.00 0.00 1023.2
20260502104505 -17 0.0 0.0 0.00 0.00 0.00 1023.2
20260502104003 -17 0.0 0.0 0.00 0.00 0.00 1023.0
20260502103500 -17 0.0 0.0 0.00 0.00 0.00 1022.9
20260502102956 -17 0.0 0.0 0.00 0.00 0.00 1022.8
20260502102454 -17 0.0 0.0 0.00 0.00 0.00 1022.6
20260502101950 -17 0.0 0.0 0.00 0.00 0.00 1022.7
20260502101449 -17 0.0 0.0 0.00 0.00 0.00 1022.7
20260502100947 -17 0.0 0.0 0.00 0.00 0.00 1022.7
20260502100445 -17 0.0 0.0 0.00 0.00 0.00 1022.6
20260502091420 -17 0.0 0.0 0.00 0.00 0.00 1022.6
20260502090917 -17 0.0 0.0 0.00 0.00 0.00 1022.5
20260502090414 -17 0.0 0.0 0.00 0.00 0.00 1022.3
20260502071309 -17 0.0 0.0 0.00 0.00 0.00 1022.3
20260502070807 -17 0.0 0.0 0.00 0.00 0.00 1022.3
20260502070304 -17 0.0 0.0 0.00 0.00 0.00 1022.2
20260502065803 -17 0.0 0.0 0.00 0.00 0.00 1022.5
20260502065300 -17 0.0 0.0 0.00 0.00 0.00 1022.4
20260502064758 -17 0.0 0.0 0.00 0.00 0.00 1022.3
20260502064256 -17 0.0 0.0 0.00 0.00 0.00 1022.1
20260502063753 -17 0.0 0.0 0.00 0.00 0.00 1022.1
20260502063251 -17 0.0 0.0 0.00 0.00 0.00 1022.2
20260502062748 -17 0.0 0.0 0.00 0.00 0.00 1022.2
20260502062245 -17 0.0 0.0 0.00 0.00 0.00 1022.2
20260502061744 -17 0.0 0.0 0.00 0.00 0.00 1022.1
20260502061241 -17 0.0 0.0 0.00 0.00 0.00 1021.9
20260502060736 -17 0.0 0.0 0.00 0.00 0.00 1021.8
20260502060232 -17 0.0 0.0 0.00 0.00 0.00 1022.1
20260502055731 -17 0.0 0.0 0.00 0.00 0.00 1022.2
20260502055228 10 50 0.0 0.0 0.00 0.00 0.00 99 1022.2
20260502054727 10 50 0.0 0.0 0.00 0.00 0.00 99 1022.2
20260502054224 10 50 0.0 0.0 0.00 0.00 0.00 99 1022.2
20260502053721 10 50 0.0 0.0 0.00 0.00 0.00 99 1022.5
20260502053218 10 50 0.0 0.0 0.00 0.00 0.00 99 1022.2
20260502052716 10 50 0.0 0.0 0.00 0.00 0.00 99 1022.1
20260502052214 10 50 0.0 0.0 0.00 0.00 0.00 99 1022.1
20260502051712 10 50 0.0 0.0 0.00 0.00 0.00 99 1022.1
20260502051210 10 50 0.0 0.0 0.00 0.00 0.00 99 1021.9
20260502050706 10 50 0.0 0.0 0.00 0.00 0.00 99 1021.8
20260502050202 10 50 0.0 0.0 0.00 0.00 0.00 99 1021.8
20260502045659 11 50 0.0 0.0 0.00 4.06 4.06 99 1021.9
20260502045157 11 50 0.0 0.0 0.00 4.06 4.06 99 1021.7
20260502044653 11 50 0.0 0.0 0.00 4.06 4.06 99 1021.8
20260502044149 11 50 0.0 0.0 0.00 4.06 4.06 99 1022.1
20260502043647 11 50 0.0 0.0 0.00 4.06 4.06 99 1021.8
20260502043145 11 50 0.0 0.0 0.00 4.06 4.06 99 1021.7
20260502042644 11 41 0.0 0.0 0.00 4.06 4.06 99 1021.6
20260502042141 11 67 0.0 0.0 0.00 4.06 4.06 99 1021.6
20260502041639 11 67 0.0 0.0 0.00 4.06 4.06 99 1021.6
20260502041136 11 67 0.0 0.0 0.00 4.06 4.06 99 1021.8
20260502040632 11 67 0.0 0.0 0.00 4.06 4.06 99 1021.7
20260502040130 11 67 0.0 0.0 0.00 4.06 4.06 99 1021.6
20260502035626 11 67 0.0 0.0 0.00 4.06 4.06 99 1021.5
20260502035123 11 67 0.0 0.0 0.00 4.06 4.06 99 1021.8
20260502034621 11 67 0.0 0.0 0.00 4.06 4.06 99 1021.7
20260502034119 11 67 0.0 0.0 0.00 4.06 4.06 99 1021.7
20260502033616 11 67 0.0 0.0 0.00 4.06 4.06 99 1021.6
20260502033114 11 67 0.0 0.0 0.00 4.06 4.06 99 1021.7
20260502032609 11 67 0.0 0.0 0.00 4.06 4.06 99 1021.6
20260502032106 11 67 0.0 0.0 0.00 4.06 4.06 99 1021.7
20260502031604 11 66 0.0 0.0 0.00 4.06 4.06 99 1021.7
20260502031102 11 75 0.0 1.6 0.00 4.06 4.06 99 1021.5
20260502030601 11 56 0.0 0.0 0.00 4.06 4.06 99 1021.5
20260502030058 11 55 0.0 0.0 0.00 4.06 4.06 99 1021.5
20260502025555 11 49 0.0 0.0 0.00 4.06 4.06 99 1021.4
20260502025053 11 49 0.0 0.0 0.00 4.06 4.06 99 1021.2
20260502024550 11 49 0.0 0.0 0.00 4.06 4.06 99 1021.1
20260502024048 11 63 0.0 0.0 0.00 4.06 4.06 99 1021.2
20260502023546 11 68 0.0 0.0 0.00 4.06 4.06 99 1021.0
20260502023043 11 68 0.0 0.0 0.00 4.06 4.06 99 1021.2
20260502022539 11 68 0.0 0.0 0.00 4.06 4.06 99 1021.0
20260502022037 11 68 0.0 0.0 0.00 4.06 4.06 99 1020.9
20260502021534 11 72 0.0 0.0 0.00 4.06 4.06 99 1020.8
20260502021031 11 33 0.0 0.0 0.00 4.06 4.06 99 1020.7
20260502020529 11 33 0.0 0.0 0.00 4.06 4.06 99 1020.5
20260502020026 11 33 0.0 0.0 0.00 4.06 4.06 99 1020.5
20260502015523 11 33 0.0 0.0 0.00 4.06 4.06 99 1020.1
20260502015019 11 33 0.0 0.0 0.00 4.06 4.06 99 1020.1
20260502014517 11 14 0.0 0.0 0.00 4.06 4.06 99 1020.0
20260502014014 11 41 0.0 0.0 0.00 4.06 4.06 99 1020.0
20260502013509 11 41 0.0 0.0 0.00 4.06 4.06 99 1019.9
20260502013005 11 51 0.0 0.0 0.00 4.06 4.06 99 1019.9
20260502012503 -17 94 3.2 8.0 0.00 4.06 4.06 1019.8
20260502012001 -17 94 3.2 8.0 0.00 4.06 4.06 1019.8
20260502011456 -17 94 3.2 8.0 0.00 4.06 4.06 1019.7
20260502010953 -17 94 3.2 8.0 0.00 4.06 4.06 1019.6
20260502010450 -17 94 3.2 8.0 0.00 4.06 4.06 1019.5
20260502005946 -17 94 3.2 8.0 2.59 4.06 4.06 1019.5
20260502005444 -17 94 3.2 8.0 0.00 3.63 3.63 1019.5
20260502004943 -17 94 3.2 8.0 0.00 3.63 3.63 1019.3
20260502004438 -17 94 3.2 8.0 0.00 3.63 3.63 1019.2
20260502003935 -17 94 3.2 8.0 0.00 3.63 3.63 1019.2
20260502003432 -17 94 3.2 8.0 0.00 3.63 3.63 1019.1
20260502002928 -17 94 3.2 8.0 0.00 3.63 3.63 1019.0
20260502002426 -17 53 4.8 6.4 0.00 3.63 3.63 1018.8
20260502001923 -17 53 4.8 6.4 0.00 3.63 3.63 1018.6
20260502001421 -17 53 4.8 6.4 0.00 3.63 3.63 1018.7
20260502000918 -17 53 4.8 6.4 0.00 3.63 3.63 1018.5
20260502000417 -17 53 4.8 6.4 0.00 3.63 3.63 1018.4
20260501235912 -17 53 4.8 6.4 0.00 3.63 3.63 1018.6
20260501235408 -17 53 4.8 6.4 0.00 3.63 3.63 1018.9
20260501234903 -17 53 4.8 6.4 0.00 3.63 3.63 1018.8
20260501234400 -17 22 3.2 16.1 0.00 3.63 3.63 1018.6
20260501233859 -17 22 3.2 16.1 0.00 3.63 3.63 1018.4
20260501233356 -17 22 3.2 16.1 0.00 3.63 3.63 1018.4
20260501232851 -17 22 3.2 16.1 0.00 3.63 3.63 1018.4
20260501232349 -17 56 4.8 11.3 0.00 3.63 3.63 1018.5
20260501231846 -17 43 4.8 11.3 0.00 3.63 3.63 1018.4
20260501231344 -17 43 3.2 8.0 0.00 3.63 3.63 1018.4
20260501230842 -17 43 3.2 8.0 0.00 3.63 3.63 1018.1
20260501230341 -17 43 3.2 8.0 0.00 3.63 3.63 1017.9
20260501225838 -17 0.0 0.0 0.00 3.63 3.63 1018.0
20260501225336 -17 0.0 0.0 0.00 3.63 3.63 1017.9
20260501224832 -17 349 4.8 9.7 0.00 3.63 3.63 1017.8
20260501224329 -17 349 4.8 9.7 0.00 3.63 3.63 1017.8
20260501223825 -17 349 4.8 9.7 0.00 3.63 3.63 1017.6
20260501223321 -17 349 4.8 9.7 0.00 3.63 3.63 1017.9
20260501222817 -17 349 4.8 9.7 0.00 3.63 3.63 1018.0
20260501222315 -17 349 4.8 9.7 0.00 3.63 3.63 1018.0
20260501221812 -17 349 4.8 9.7 0.00 3.63 3.63 1018.0
20260501221309 -17 349 4.8 9.7 0.00 3.63 3.63 1018.2
20260501220807 -17 349 4.8 9.7 0.00 3.63 3.63 1018.5
20260501220304 -17 349 4.8 9.7 0.00 3.63 3.63 1018.4
20260501215800 -17 349 4.8 9.7 0.00 3.63 3.63 1018.0
20260501215256 -17 358 6.4 14.5 0.00 3.63 3.63 1018.0
20260501214751 -17 358 6.4 14.5 0.00 3.63 3.63 1017.8
20260501214247 -17 358 6.4 14.5 0.00 3.63 3.63 1017.8
20260501213743 -17 358 6.4 14.5 0.00 3.63 3.63 1017.4